DG2GGP-11 Weather Reports


Display with metric or nautical units.
time (UTC)temp
F
wind
direction
speed
MPH
gust
MPH
rain 1hr
in
rain 24hr
in
rain mn
in
humidity
%
barometer
mb
20260505210917 50 280 0.0 0.0 0.00 0.00 0.22 88 1009.9
20260505205917 50 235 3.0 0.0 0.00 0.00 0.22 87 1009.8
20260505204917 50 238 5.0 0.0 0.00 0.00 0.22 87 1009.8
20260505203917 50 293 4.0 0.0 0.00 0.00 0.22 87 1009.5
20260505202916 51 210 0.0 0.0 0.00 0.00 0.22 87 1009.4
20260505201916 51 203 5.0 0.0 0.00 0.00 0.22 87 1009.4
20260505200917 51 170 4.0 0.0 0.00 0.00 0.22 87 1009.3
20260505195916 51 313 3.0 0.0 0.00 0.00 0.22 86 1009.3
20260505194917 52 205 4.0 0.0 0.00 0.00 0.22 86 1009.3
20260505193916 52 183 3.0 0.0 0.00 0.00 0.22 87 1009.1
20260505192917 52 170 4.0 0.0 0.00 0.00 0.22 87 1008.9
20260505191916 53 243 3.0 0.0 0.00 0.00 0.22 86 1008.7
20260505190917 53 190 4.0 0.0 0.00 0.00 0.22 87 1008.9
20260505185916 53 215 4.0 0.0 0.00 0.00 0.22 87 1009.0
20260505184917 53 215 6.0 0.0 0.00 0.00 0.22 86 1009.1
20260505183916 53 205 4.0 0.0 0.00 0.00 0.22 86 1008.8
20260505182917 53 203 4.0 0.0 0.00 0.00 0.22 86 1008.7
20260505181917 54 210 4.0 0.0 0.00 0.00 0.22 85 1008.7
20260505180916 54 230 5.0 0.0 0.00 0.00 0.22 84 1008.6
20260505175916 54 208 5.0 0.0 0.00 0.00 0.22 83 1008.5
20260505174916 55 210 5.0 0.0 0.00 0.00 0.22 83 1008.6
20260505173917 54 228 0.0 0.0 0.00 0.00 0.22 83 1008.6
20260505172916 54 223 6.0 0.0 0.00 0.00 0.22 83 1008.6
20260505171916 55 210 4.0 0.0 0.00 0.00 0.22 84 1008.6
20260505170916 54 115 4.0 0.0 0.00 0.00 0.22 84 1008.5
20260505165917 54 143 6.0 0.0 0.00 0.00 0.21 85 1008.6
20260505164917 54 175 2.0 0.0 0.00 0.00 0.21 85 1008.6
20260505163916 53 190 4.0 0.0 0.00 0.00 0.21 85 1008.6
20260505162916 53 180 3.0 0.0 0.00 0.00 0.21 85 1008.5
20260505161916 53 180 3.0 0.0 0.00 0.00 0.21 84 1008.4
20260505160917 54 185 0.0 0.0 0.00 0.00 0.21 83 1008.4
20260505152916 59 220 4.0 0.0 0.00 0.00 0.17 76 1007.9
20260505151917 60 218 6.0 0.0 0.00 0.00 0.13 71 1008.0
20260505150917 62 175 6.0 0.0 0.00 0.00 0.06 65 1007.8
20260505124917 57 5 4.0 0.0 0.00 0.00 0.06 81 1009.0
20260505123917 57 78 3.0 0.0 0.00 0.00 0.06 81 1009.1
20260505122916 56 113 5.0 0.0 0.00 0.00 0.06 79 1009.2
20260505121917 57 105 4.0 0.0 0.00 0.00 0.06 80 1009.3
20260505120917 57 110 4.0 0.0 0.00 0.00 0.05 80 1009.2
20260505115916 57 135 3.0 0.0 0.00 0.00 0.05 79 1009.2
20260505114916 57 113 0.0 0.0 0.00 0.00 0.05 77 1009.3
20260505113916 57 178 2.0 0.0 0.00 0.00 0.04 78 1009.4
20260505112917 57 50 0.0 0.0 0.00 0.00 0.04 78 1009.4
20260505111916 57 175 0.0 0.0 0.00 0.00 0.04 78 1009.3
20260505110916 58 348 0.0 0.0 0.00 0.00 0.04 78 1009.3
20260505101916 58 145 4.0 0.0 0.00 0.00 0.01 75 1009.6
20260505100916 58 165 5.0 0.0 0.00 0.00 0.01 72 1009.6
20260505095916 59 148 5.0 0.0 0.00 0.00 0.00 69 1009.6
20260505094916 60 148 4.0 0.0 0.00 0.00 0.00 67 1009.6
20260505093917 60 135 3.0 0.0 0.00 0.00 0.00 66 1009.6
20260505092917 60 148 3.0 0.0 0.00 0.00 0.00 65 1009.6
20260505091916 60 170 4.0 0.0 0.00 0.00 0.00 65 1009.6
20260505090916 60 145 3.0 0.0 0.00 0.00 0.00 64 1009.6
20260505085916 60 133 5.0 0.0 0.00 0.00 0.00 64 1009.6
20260505084916 60 125 5.0 0.0 0.00 0.00 0.00 65 1009.6
20260505083916 61 150 4.0 0.0 0.00 0.00 0.00 64 1009.6
20260505082917 61 58 5.0 0.0 0.00 0.00 0.00 64 1009.5
20260505081917 60 65 4.0 0.0 0.00 0.00 0.00 66 1009.6
20260505080916 60 120 4.0 0.0 0.00 0.00 0.00 66 1009.7
20260505075916 60 180 4.0 0.0 0.00 0.00 0.00 67 1009.8
20260505074916 60 43 4.0 0.0 0.00 0.00 0.00 66 1009.8
20260505073916 59 240 3.0 0.0 0.00 0.00 0.00 69 1010.0
20260505072916 58 120 0.0 0.0 0.00 0.00 0.00 71 1010.0
20260505071916 57 8 4.0 0.0 0.00 0.00 0.00 72 1010.0
20260505070916 56 343 2.0 0.0 0.00 0.00 0.00 77 1010.2
20260505065917 56 293 2.0 0.0 0.00 0.00 0.00 79 1010.3
20260505064916 55 190 0.0 0.0 0.00 0.00 0.00 80 1010.3
20260505063917 55 260 0.0 0.0 0.00 0.00 0.00 82 1010.3
20260505062916 54 288 3.0 0.0 0.00 0.00 0.00 82 1010.4
20260505061916 53 158 0.0 0.0 0.00 0.00 0.00 83 1010.5
20260505060917 54 190 0.0 0.0 0.00 0.00 0.00 82 1010.5
20260505055916 53 193 0.0 0.0 0.00 0.00 0.00 82 1010.4
20260505054916 53 278 0.0 0.0 0.00 0.00 0.00 82 1010.4
20260505053916 52 198 2.0 0.0 0.00 0.00 0.00 83 1010.5
20260505052916 51 180 0.0 0.0 0.00 0.00 0.00 85 1010.3
20260505051916 50 158 0.0 0.0 0.00 0.00 0.00 86 1010.3
20260505050917 49 215 0.0 0.0 0.00 0.00 0.00 87 1010.3
20260505040916 48 175 0.0 0.0 0.00 0.00 0.00 87 1010.6
20260505035917 48 205 0.0 0.0 0.00 0.00 0.00 87 1010.7
20260505034916 48 210 0.0 0.0 0.00 0.00 0.00 88 1010.7
20260505033917 48 235 3.0 0.0 0.00 0.00 0.00 88 1010.9
20260505032917 47 230 4.0 0.0 0.00 0.00 0.00 88 1010.9
20260505031917 47 230 0.0 0.0 0.00 0.00 0.00 88 1010.9
20260505030917 47 230 0.0 0.0 0.00 0.00 0.00 88 1011.0
20260505025916 47 230 0.0 0.0 0.00 0.00 0.00 88 1011.0
20260505024917 47 255 0.0 0.0 0.00 0.00 0.00 88 1011.1
20260505023917 47 283 0.0 0.0 0.00 0.00 0.00 88 1011.2
20260505022916 47 283 0.0 0.0 0.00 0.00 0.00 88 1011.3
20260505021917 47 318 0.0 0.0 0.00 0.00 0.00 88 1011.4
20260505020917 47 240 0.0 0.0 0.00 0.00 0.00 87 1011.5
20260505015916 48 240 0.0 0.0 0.00 0.00 0.00 87 1011.6
20260505014917 48 240 0.0 0.0 0.00 0.00 0.00 87 1011.6
20260505013916 49 240 0.0 0.0 0.00 0.00 0.00 87 1011.8
20260505012917 49 240 0.0 0.0 0.00 0.00 0.00 86 1011.9
20260505011917 50 240 0.0 0.0 0.00 0.00 0.00 86 1012.0
20260505010917 51 240 0.0 0.0 0.00 0.00 0.00 85 1012.2
20260505005917 51 240 0.0 0.0 0.00 0.00 0.00 85 1012.3
20260505004917 51 240 0.0 0.0 0.00 0.00 0.00 85 1012.4
20260505003917 51 240 0.0 0.0 0.00 0.00 0.00 85 1012.7
20260505002916 51 238 0.0 0.0 0.00 0.00 0.00 85 1012.8
20260505001916 51 238 0.0 0.0 0.00 0.00 0.00 85 1012.8
20260505000916 51 205 0.0 0.0 0.00 0.00 0.00 85 1013.0
20260504235917 51 225 0.0 0.0 0.00 0.00 0.00 85 1013.1
20260504234916 51 220 3.0 0.0 0.00 0.00 0.00 85 1013.1
20260504233917 51 230 0.0 0.0 0.00 0.00 0.00 86 1013.1
20260504232916 51 195 0.0 0.0 0.00 0.00 0.00 86 1013.2
20260504231916 51 313 0.0 0.0 0.00 0.00 0.00 86 1013.2
20260504230917 51 145 0.0 0.0 0.00 0.00 0.00 85 1013.3
20260504225917 51 145 0.0 0.0 0.00 0.00 0.00 85 1013.2
20260504224917 51 145 0.0 0.0 0.00 0.00 0.00 85 1013.3
20260504223916 52 145 0.0 0.0 0.00 0.00 0.00 84 1013.4
20260504222917 52 320 0.0 0.0 0.00 0.00 0.00 83 1013.4
20260504221917 52 320 0.0 0.0 0.00 0.00 0.00 83 1013.4
20260504220916 53 320 0.0 0.0 0.00 0.00 0.00 82 1013.7
20260504215916 53 320 0.0 0.0 0.00 0.00 0.00 83 1013.7
20260504214916 53 240 0.0 0.0 0.00 0.00 0.00 82 1013.8
20260504213916 53 240 0.0 0.0 0.00 0.00 0.00 82 1013.8
20260504212917 53 305 0.0 0.0 0.00 0.00 0.00 82 1013.8
20260504211916 53 345 0.0 0.0 0.00 0.00 0.00 82 1013.8